GFSMW_700_spd_102.txt.gz
Wind_Speed
20 19 16 14 12 13 13 17 17 16 15 15 15 12 11 11 9 9 6 5 6 5 6 5 7 6 7 8 8 7 8 8 12 11 8 9 8 5 4 5 6 5 5
21 21 17 15 12 13 13 15 16 16 16 16 14 13 10 9 7 7 7 7 5 4 5 6 5 7 6 6 6 6 7 8 11 12 11 5 5 6 5 4 4 3 2
23 23 19 16 13 13 14 14 16 18 20 17 13 10 9 7 7 6 6 6 7 5 4 5 4 8 5 7 6 5 5 5 9 12 11 5 5 6 6 5 4 3 2
25 21 20 16 14 13 15 14 17 19 18 15 14 11 11 9 8 6 5 5 8 8 6 5 3 5 6 6 7 4 4 5 7 10 11 11 10 7 2 6 8 6 5
28 25 22 17 17 14 11 15 16 18 16 13 13 12 11 8 9 8 5 5 7 9 7 6 5 4 5 7 8 6 6 8 8 8 11 10 9 10 8 3 4 8 9
26 26 23 21 20 17 14 12 15 19 17 16 14 13 10 8 9 8 7 4 4 8 8 7 6 5 4 6 7 7 6 9 10 10 10 10 8 5 4 2 4 6 9
30 29 27 25 24 21 16 13 15 17 16 17 17 15 13 10 10 9 8 6 4 5 7 6 5 6 7 6 6 6 7 8 13 11 9 12 12 12 12 5 6 6 8
37 30 30 28 27 22 16 13 13 15 17 18 17 17 16 13 11 12 11 9 7 8 7 6 6 5 7 7 6 6 9 10 12 13 10 12 14 14 14 13 10 6 10
39 38 33 33 29 26 20 14 13 15 18 19 20 18 17 15 15 16 13 10 8 9 9 7 6 5 3 4 4 5 7 9 10 11 11 11 13 15 17 17 17 15 10
27 40 38 34 32 28 25 21 17 16 16 17 20 20 18 18 16 16 16 14 10 9 10 9 8 6 4 5 4 4 5 5 9 9 9 10 11 13 15 17 19 19 20
26 28 41 37 32 32 28 26 24 23 20 19 19 20 19 19 19 18 18 18 15 12 11 10 10 8 6 5 5 5 5 5 5 6 8 10 10 10 12 13 16 19 21
20 22 37 35 35 33 34 31 30 29 25 23 21 20 17 20 21 20 19 20 17 15 14 14 11 10 9 9 8 8 7 6 6 6 7 6 6 6 8 9 10 13 15
23 25 29 35 36 37 35 31 38 39 32 29 24 22 20 17 21 22 21 21 18 18 16 15 15 13 11 11 9 10 8 7 7 8 7 8 9 8 9 8 10 10 10
23 23 25 27 28 32 33 31 22 30 35 32 32 28 27 22 20 23 25 23 22 20 19 17 18 17 15 14 14 11 11 10 11 10 10 11 10 11 11 11 11 12 12
26 25 23 25 23 24 26 28 24 28 37 38 39 35 32 27 25 23 25 25 24 22 20 19 19 19 18 18 15 14 14 14 14 14 13 15 14 14 14 14 14 14 15
24 23 24 24 23 22 22 22 17 19 22 42 44 42 37 37 29 23 23 24 24 23 19 18 20 19 19 17 16 15 14 15 16 16 15 16 15 16 16 16 16 17 16
22 22 22 23 22 21 20 22 22 17 15 20 30 27 33 25 33 34 26 23 23 22 20 20 22 20 20 19 17 17 17 17 17 17 16 18 15 15 16 17 18 19 20
18 21 21 22 20 22 22 21 25 19 17 14 12 13 11 20 33 35 37 27 22 21 19 19 21 22 23 23 22 21 21 20 19 19 19 22 20 19 20 21 21 21 22
20 19 19 20 21 23 23 24 26 25 24 21 18 19 12 10 15 22 27 23 23 22 25 26 27 27 27 26 26 25 23 23 23 25 22 24 24 23 22 23 23 23 25
22 21 20 20 23 22 20 18 20 30 26 25 20 19 16 16 16 16 20 27 25 26 27 30 35 37 33 30 27 26 25 24 25 26 23 22 19 19 24 24 24 24 29
20 17 17 18 18 25 22 23 23 29 29 26 21 18 14 12 14 13 12 16 27 26 15 10 13 16 28 28 26 28 27 27 27 29 29 30 31 29 32 31 31 36 34
16 14 17 18 21 21 25 22 23 25 24 25 21 17 19 17 15 13 13 13 17 18 14 13 10 8 9 14 17 19 27 29 31 30 36 34 40 36 34 38 34 34 32
21 24 23 22 22 25 29 30 23 24 23 22 21 20 19 19 19 19 17 19 20 19 19 17 15 14 14 15 16 16 18 17 19 26 25 23 25 24 24 24 26 29 32
23 21 21 24 27 23 22 19 19 19 18 18 20 20 20 20 20 20 20 20 20 19 19 20 19 20 21 22 23 24 24 24 24 25 26 29 30 28 27 29 30 33 32
26 24 21 17 16 15 15 15 15 15 16 17 17 19 20 21 21 21 21 21 22 23 24 25 25 26 27 28 28 28 28 28 28 27 26 26 26 25 24 23 23 23 23
21 19 18 17 15 13 11 11 11 12 14 16 17 19 21 24 25 25 26 27 27 28 28 28 27 28 28 29 28 27 27 27 27 26 25 23 21 20 19 19 18 19 21

GFSMW_700_spd_105.txt.gz
Wind_Speed
20 16 16 14 14 14 14 17 17 17 18 17 14 10 10 9 6 9 5 6 6 5 5 5 7 12 7 5 7 8 7 3 11 12 2 5 6 6 5 5 5 4 6
21 20 20 15 13 14 13 17 18 16 17 15 16 13 6 9 7 5 5 4 4 5 6 5 5 7 7 6 7 8 10 1 15 11 8 2 5 3 1 2 2 3 1
25 22 20 18 15 15 14 17 16 16 16 14 16 15 12 12 10 6 3 4 5 4 6 6 6 9 7 3 7 9 15 5 8 13 11 10 6 2 2 1 3 2 3
22 23 20 19 17 17 16 16 16 18 17 18 14 12 10 7 5 2 0 5 6 6 5 7 5 7 9 8 6 3 11 11 4 6 14 15 11 8 2 2 6 4 4
28 27 23 21 19 19 17 16 16 17 18 16 14 11 11 10 4 3 8 5 5 7 6 6 5 5 5 8 7 7 6 14 13 6 3 8 4 12 11 4 3 6 2
27 19 26 23 23 20 18 18 19 19 16 15 14 15 15 13 10 11 8 3 4 9 7 6 5 5 5 7 8 7 6 7 13 11 12 10 12 11 6 4 6 6 9
34 27 31 25 24 31 20 19 17 19 19 17 16 15 15 14 14 12 9 14 7 4 6 5 5 6 6 5 6 7 6 8 10 10 10 8 13 15 9 9 15 5 11
31 33 23 24 27 22 23 18 15 17 19 18 18 18 16 14 15 13 15 2 5 6 3 5 5 5 7 6 6 7 8 10 11 13 12 11 5 7 7 9 14 8 7
40 37 31 26 38 21 18 21 17 16 18 19 20 19 18 17 17 16 14 12 12 8 7 6 6 5 3 4 6 7 7 10 9 11 12 11 9 10 9 11 10 11 11
44 32 29 33 24 26 22 18 17 15 18 21 21 21 21 20 19 18 12 22 10 8 14 7 6 5 4 5 4 5 4 5 7 9 12 11 12 13 8 11 12 14 14
37 46 38 36 31 28 25 22 19 16 16 19 20 22 23 22 21 18 20 18 10 9 9 9 8 8 7 5 5 5 7 5 5 6 7 9 9 10 10 12 11 12 12
23 30 41 31 28 32 27 25 26 18 17 16 19 19 21 21 20 19 17 18 15 14 11 13 11 10 10 8 8 8 8 8 7 6 6 6 6 7 7 9 8 9 10
29 32 29 31 33 37 40 30 29 26 26 23 23 21 21 18 18 21 20 19 18 18 15 14 13 12 11 9 9 10 9 9 8 7 6 7 7 7 8 8 8 9 9
29 28 27 31 39 42 33 32 36 29 32 36 33 28 23 21 20 19 21 23 20 19 17 17 16 16 14 14 12 12 11 10 10 9 8 9 10 9 10 9 10 11 11
30 28 26 27 37 42 38 38 36 37 34 30 41 36 30 27 25 23 22 22 23 21 20 19 19 18 17 19 15 14 14 13 14 14 13 12 13 12 12 12 12 12 13
25 25 26 24 30 36 35 34 33 31 29 29 26 38 35 32 29 28 24 23 24 24 23 21 20 20 21 14 15 16 16 15 15 14 14 14 14 13 12 12 11 12 13
27 26 25 23 25 27 28 28 25 25 25 23 22 28 38 40 40 35 32 31 28 21 23 22 21 19 18 17 15 16 17 16 15 15 15 14 15 15 15 15 16 16 16
24 28 26 25 26 24 24 22 22 22 23 22 18 18 27 31 34 36 38 38 28 19 21 23 21 19 18 18 18 18 19 18 18 18 18 20 20 19 19 20 20 19 20
22 24 21 20 23 25 24 22 20 21 23 21 15 12 12 11 15 22 24 31 35 32 28 22 20 20 20 22 22 21 21 20 21 21 21 22 22 21 21 21 21 20 20
24 23 22 22 25 27 27 27 26 24 27 24 22 18 16 16 12 10 16 24 34 33 31 29 21 20 27 32 31 27 24 23 22 22 22 23 23 20 19 20 22 22 23
25 25 23 23 22 24 24 23 22 26 26 28 27 24 19 17 17 17 15 13 18 25 24 23 24 17 15 20 29 30 30 25 24 25 26 23 23 27 31 31 31 31 36
22 22 21 18 19 20 24 25 24 22 23 30 26 26 23 19 13 14 15 16 15 24 23 21 18 14 10 5 5 10 12 18 21 24 26 32 34 31 32 30 33 30 29
21 21 19 15 21 23 21 24 27 29 24 29 28 28 24 20 18 17 14 13 13 17 20 19 17 16 14 12 11 11 11 12 14 15 17 18 22 25 24 24 25 28 28
16 20 23 22 21 22 27 26 27 29 31 27 26 26 24 22 21 21 19 20 19 20 21 20 20 19 18 18 18 18 19 20 21 23 23 24 25 27 27 28 26 27 26
25 26 23 24 27 29 28 26 26 30 28 25 24 22 23 24 22 21 21 19 19 20 22 23 23 23 25 24 26 26 26 26 25 26 26 24 24 25 25 24 24 21 18
27 23 20 18 17 19 16 19 20 21 19 17 18 19 20 20 22 22 22 23 24 25 26 27 27 28 28 28 27 28 27 27 27 27 27 25 22 21 20 19 18 17 18

GFSMW_700_spd_111.txt.gz
Wind_Speed
15 9 22 19 12 9 10 15 16 19 16 12 11 13 10 11 9 9 8 8 9 10 9 12 10 12 11 17 17 16 13 17 12 7 9 11 11 9 8 8 7 8 6
18 11 18 18 11 11 12 11 16 17 18 16 17 13 10 11 10 9 8 9 8 7 4 11 7 11 10 16 15 18 18 18 15 10 11 8 5 8 10 11 8 7 11
21 20 20 21 13 11 12 12 16 18 18 19 17 13 11 10 7 7 7 8 7 8 6 6 7 9 10 11 15 18 23 15 14 10 6 3 4 4 6 4 5 7 8
27 25 21 18 11 6 6 11 16 18 16 13 15 13 12 12 10 10 8 7 7 7 8 8 7 7 6 8 13 14 19 19 14 13 10 9 11 9 8 9 9 7 12
31 28 24 16 13 10 6 5 15 16 17 14 12 14 10 11 11 6 8 4 5 7 6 7 7 12 6 8 10 13 10 16 17 17 10 11 11 14 12 16 11 10 11
34 28 29 25 16 16 8 8 12 15 17 15 16 15 11 8 8 4 6 9 7 10 7 5 6 6 7 11 12 9 11 13 13 14 11 10 10 9 13 9 16 17 14
34 35 32 26 23 18 12 11 10 18 18 17 15 15 15 9 10 11 7 8 4 9 10 10 9 6 5 6 10 12 11 15 15 15 12 11 10 12 13 10 5 4 8
40 36 33 30 28 23 19 12 6 15 18 19 19 16 13 12 12 12 12 8 6 6 10 10 8 7 8 6 7 9 10 8 11 15 19 19 18 12 9 7 8 10 11
42 42 38 31 31 28 21 22 10 15 19 18 17 16 15 17 14 7 10 9 8 17 10 10 9 7 7 8 9 8 8 9 10 10 13 16 16 11 12 10 10 11 15
38 34 33 31 29 23 30 30 15 15 18 20 21 19 18 17 14 10 7 9 5 9 7 11 8 7 5 5 6 5 4 4 8 8 8 10 14 13 12 8 11 14 10
45 32 37 35 31 32 31 26 19 17 20 19 20 22 21 20 18 13 13 14 8 7 7 9 5 5 5 4 4 4 3 3 2 2 3 2 8 11 13 12 10 12 12
32 43 37 39 33 33 39 28 24 18 17 19 18 22 23 23 20 17 15 13 10 10 8 6 6 9 7 7 6 5 4 4 6 4 2 2 4 3 5 6 7 8 5
20 41 43 33 37 36 33 33 28 26 23 14 14 16 18 18 16 17 18 15 12 12 13 12 10 10 9 8 8 7 4 5 5 5 5 4 4 4 3 4 6 5 5
17 33 38 34 36 39 31 35 35 27 23 23 14 12 13 12 11 11 13 16 14 13 14 14 14 14 15 12 10 8 7 7 8 7 6 6 5 2 5 6 6 7 9
16 25 28 30 33 40 32 34 29 38 27 28 24 12 13 17 14 14 17 17 13 13 16 15 16 16 15 13 11 10 11 10 10 10 10 9 8 8 6 7 7 6 6
19 19 25 30 26 33 34 26 22 25 23 27 27 24 18 21 24 25 24 24 21 15 13 15 20 18 15 14 14 13 13 13 12 11 13 9 7 7 7 7 8 8 7
15 16 18 27 26 24 23 24 28 21 21 19 26 23 24 28 29 25 23 25 30 20 19 17 17 19 21 18 16 15 14 14 14 13 15 11 9 9 10 11 11 12 11
10 14 12 16 23 23 20 20 27 28 26 24 23 26 27 29 29 28 26 32 25 21 19 19 22 23 22 18 16 16 16 16 14 15 14 14 13 15 15 14 14 14 14
11 15 16 19 18 18 16 16 19 26 28 28 27 28 28 25 23 24 22 28 31 29 29 26 27 22 26 29 28 21 15 17 18 18 19 19 18 18 18 17 17 16 16
8 12 15 11 15 16 14 15 17 19 22 24 27 26 21 18 12 7 5 11 22 31 34 29 23 25 21 23 27 26 25 20 22 22 20 19 20 20 20 19 19 19 21
12 17 15 11 13 14 14 14 15 17 22 21 19 18 17 17 17 13 11 12 14 14 17 19 17 17 16 21 26 26 27 27 28 26 24 22 22 23 22 21 21 23 25
21 17 17 18 18 19 18 18 18 19 20 20 20 22 22 21 21 21 16 15 15 13 11 14 15 16 14 18 19 17 17 15 14 15 20 23 25 24 24 25 23 19 19
18 18 16 20 21 21 21 21 22 23 25 28 28 31 29 26 24 26 23 20 17 18 16 17 16 17 12 20 15 17 15 10 9 9 8 11 13 16 17 17 18 20 20
21 17 16 17 19 20 21 20 19 21 20 20 19 19 22 25 23 24 24 23 19 18 18 16 16 18 17 17 18 18 17 15 15 15 15 16 18 19 21 22 23 22 23
15 14 15 16 19 16 13 16 20 18 17 24 23 25 27 28 22 21 23 19 22 21 20 18 15 16 19 21 22 22 21 21 22 22 23 24 24 25 25 25 24 24 24
13 16 14 16 16 19 21 21 20 19 19 28 24 25 25 30 31 24 24 23 23 24 25 24 22 22 24 25 25 26 26 26 26 27 27 28 29 29 29 28 25 25 24

GFSMW_700_spd_114.txt.gz
Wind_Speed
21 14 11 12 6 5 5 7 14 17 16 15 13 12 11 12 13 11 11 9 7 6 9 15 16 14 13 16 16 13 6 10 12 13 15 15 15 12 10 6 7 5 5
25 19 12 10 7 4 6 6 15 17 16 15 15 14 12 10 9 11 11 12 9 7 8 10 11 10 12 17 16 14 10 10 10 11 12 12 13 11 10 7 4 2 3
25 20 13 8 6 3 6 6 14 17 15 16 15 15 13 13 13 10 9 10 9 10 9 8 5 10 11 16 15 15 13 12 12 12 11 13 12 8 6 3 4 7 7
28 21 11 7 3 2 4 6 14 18 16 13 13 14 10 16 12 9 9 9 9 9 10 10 9 8 9 10 13 15 18 15 15 12 11 9 8 9 7 7 6 8 10
30 23 17 10 3 6 1 4 13 15 14 14 14 10 11 10 6 8 7 7 7 8 10 8 9 10 4 9 11 14 18 17 17 15 14 9 7 11 11 12 14 15 14
34 27 22 15 12 8 6 6 9 12 15 15 12 12 11 9 7 9 11 6 6 8 9 9 8 10 10 9 10 14 14 15 19 19 17 13 13 13 12 10 12 19 18
37 34 31 26 21 11 15 7 7 11 14 15 13 13 14 9 12 11 10 7 5 6 10 9 10 11 10 10 11 13 14 15 15 16 17 19 16 12 12 13 18 10 10
41 36 31 29 23 15 15 6 9 11 14 15 15 12 11 11 8 8 2 7 6 5 11 10 9 9 10 9 12 12 12 12 16 17 17 14 15 16 14 11 9 15 15
42 39 39 30 26 19 19 12 9 6 11 14 15 15 15 15 10 7 8 8 9 7 9 10 9 10 10 10 10 10 10 13 14 15 18 19 18 17 15 15 11 8 15
50 44 40 30 30 28 16 18 12 9 7 15 15 16 16 15 14 10 9 9 9 6 16 14 12 9 10 10 10 11 10 10 15 13 13 16 18 17 15 13 9 10 12
47 42 40 32 32 30 26 17 19 19 12 15 17 20 20 18 16 14 13 10 9 7 8 8 11 10 11 9 8 9 7 8 10 11 10 11 14 17 16 13 12 13 12
39 44 41 42 39 38 29 27 18 18 17 19 15 19 22 19 19 17 15 12 11 11 11 10 12 12 12 10 8 8 7 7 8 7 7 8 7 8 10 13 13 10 6
19 43 42 44 40 38 31 27 23 19 18 20 14 18 18 18 16 16 15 14 14 14 15 16 15 14 13 11 12 11 9 8 6 7 10 8 8 8 8 9 9 9 9
22 26 43 45 38 37 31 26 28 32 28 27 20 16 16 18 17 13 14 15 17 18 18 19 19 17 12 13 13 13 10 10 9 8 8 7 7 10 10 11 10 9 9
25 20 30 40 45 38 31 36 27 27 29 30 27 22 19 20 22 17 15 12 15 17 19 19 18 17 15 15 15 13 12 14 11 12 10 8 9 8 9 12 12 10 10
28 22 21 27 39 38 35 33 34 30 38 34 28 28 22 22 19 17 21 19 18 19 18 18 19 18 16 15 16 15 15 15 15 16 11 9 8 11 11 11 9 9 9
19 27 20 24 32 36 31 29 26 28 22 21 31 31 31 24 17 20 19 23 17 27 19 18 16 18 19 21 21 19 18 18 16 17 15 12 11 13 13 12 12 12 12
12 22 17 23 26 27 24 25 24 27 23 22 21 21 20 25 23 19 22 26 24 24 30 25 25 26 21 18 20 25 22 20 19 18 18 16 16 16 16 15 15 16 15
8 10 14 13 14 17 20 23 23 26 27 26 21 23 23 24 23 22 26 25 26 25 30 25 26 24 18 21 24 29 24 22 22 20 19 19 20 19 20 18 18 17 17
9 9 10 14 17 18 19 21 13 15 28 35 29 29 27 27 26 22 15 13 11 18 25 25 27 26 26 28 27 28 28 24 21 19 19 20 20 21 22 20 20 20 21
8 8 9 10 10 13 14 10 20 19 16 28 35 31 23 21 14 15 15 12 10 9 13 20 24 26 25 25 22 20 20 26 27 29 31 29 27 25 23 21 21 21 21
17 17 16 12 15 13 11 10 11 10 11 13 10 12 15 16 15 19 20 17 14 14 16 16 18 20 23 20 20 23 24 24 21 27 25 23 20 22 24 24 25 24 25
20 19 17 17 16 18 16 16 16 18 15 16 16 18 17 16 16 17 20 22 21 19 16 16 19 19 17 20 22 21 18 17 18 15 13 15 18 18 18 19 20 21 20
18 15 13 13 17 18 18 17 17 17 19 22 23 22 24 25 24 23 24 17 16 20 19 17 16 18 19 23 19 20 20 18 18 19 16 14 13 14 15 17 20 23 25
10 5 8 9 9 9 11 10 11 11 11 11 14 15 14 18 23 22 22 26 24 21 19 16 17 19 18 22 22 23 23 23 23 24 22 21 20 20 22 23 24 25 26
4 5 5 6 3 10 11 10 11 10 10 12 17 17 19 16 22 25 25 25 20 25 26 16 18 19 20 24 26 27 27 27 28 28 28 27 27 26 26 27 27 28 27

GFSMW_700_spd_117.txt.gz
Wind_Speed
16 10 3 2 3 2 2 4 12 15 18 18 16 14 12 13 12 12 13 13 10 10 16 14 12 10 8 11 12 12 15 15 14 13 12 12 13 12 9 8 7 5 2
20 16 9 6 6 3 1 2 10 15 16 16 15 14 15 13 12 13 13 13 11 8 12 13 8 6 11 8 14 11 11 9 8 12 12 11 11 11 10 9 8 4 4
16 17 13 8 8 5 1 2 10 16 16 14 16 16 14 13 11 10 10 10 10 10 10 13 10 10 12 12 15 14 9 11 9 11 10 9 9 7 6 6 7 7 6
21 13 12 10 11 5 1 5 12 16 12 12 14 14 10 10 10 8 9 11 11 11 9 11 9 9 9 14 16 16 15 11 14 11 10 9 10 11 11 11 9 9 9
25 20 16 8 9 8 2 4 13 15 14 12 13 14 11 13 10 9 8 8 9 10 11 9 10 10 10 10 15 15 17 17 15 14 13 10 11 14 13 15 14 15 13
29 25 19 14 10 10 9 6 9 13 14 14 13 11 12 13 10 9 9 8 7 8 9 11 11 13 13 9 9 13 15 16 20 19 16 15 14 15 14 14 17 18 14
35 32 29 22 16 15 11 9 6 10 13 14 12 11 14 10 9 9 9 10 7 7 8 8 11 11 13 11 12 13 14 14 17 19 20 19 18 17 15 13 14 14 12
39 36 32 24 19 15 14 12 9 10 13 13 14 13 13 12 8 10 10 13 8 7 7 9 11 10 11 13 13 15 15 16 14 15 17 19 17 13 14 16 15 14 17
44 42 37 29 24 21 16 15 8 9 12 14 16 14 13 11 9 10 10 8 7 7 5 10 11 11 11 13 11 11 12 14 14 13 14 16 17 16 15 14 13 12 11
46 45 40 32 27 19 19 20 15 9 10 13 15 16 15 13 12 12 8 9 10 10 10 16 15 11 11 13 14 12 12 12 14 16 15 16 16 15 13 11 9 6 10
46 42 40 35 28 24 25 19 19 15 11 11 16 16 14 14 14 13 12 11 11 10 9 11 14 13 11 9 11 13 13 13 13 11 14 16 16 15 13 11 8 8 9
41 41 40 38 33 29 29 24 22 21 16 15 15 16 17 17 18 15 15 14 14 14 12 10 12 12 12 12 12 12 12 11 10 12 12 13 12 11 10 11 11 10 9
28 43 51 46 41 38 32 25 25 25 21 19 19 20 19 17 17 18 18 18 17 15 13 13 11 14 15 13 14 14 13 12 12 10 11 13 13 12 11 11 10 8 9
13 12 27 48 40 34 31 30 27 28 24 22 20 18 18 19 17 19 20 20 19 19 17 16 18 16 15 15 15 16 16 14 13 12 10 11 13 12 12 12 12 11 11
7 9 16 30 42 38 35 32 29 27 27 25 25 22 23 20 21 20 19 20 17 19 24 23 20 21 19 18 20 18 16 16 17 14 14 12 13 14 12 15 14 13 14
16 17 16 19 34 38 37 37 30 31 31 27 26 28 29 30 26 26 24 20 19 11 24 24 24 23 22 20 19 18 18 16 16 16 16 15 16 16 17 15 15 16 15
3 13 21 19 23 29 36 37 38 34 35 33 28 22 31 34 30 25 27 23 20 28 15 25 23 23 21 21 21 19 18 17 18 18 17 17 18 18 18 17 17 17 16
16 15 21 21 18 17 22 31 36 34 30 37 33 25 30 35 39 30 24 25 29 20 22 22 31 29 26 23 22 22 21 21 22 21 21 20 20 20 20 19 19 18 18
2 3 23 25 18 16 23 29 35 37 36 29 24 24 28 32 43 35 27 28 25 26 25 23 23 29 30 29 27 24 20 22 25 24 22 20 20 22 22 21 21 21 21
5 6 10 13 18 18 15 21 22 25 27 29 30 27 26 22 21 24 27 19 22 23 21 20 18 22 25 24 28 24 24 26 31 32 33 30 19 19 21 22 23 23 22
8 8 10 10 10 13 13 16 13 18 33 20 34 36 33 31 30 28 29 24 18 13 9 13 19 19 22 26 27 27 24 27 26 21 20 19 20 23 24 26 26 26 26
16 15 14 15 12 11 11 11 9 3 8 12 9 15 20 30 23 13 11 17 14 11 12 14 14 16 17 20 19 17 16 18 20 23 23 22 26 26 28 28 31 32 26
20 17 16 17 15 14 14 17 16 13 12 14 12 7 10 9 12 9 11 16 17 18 17 16 14 13 16 18 16 17 23 22 22 19 18 17 18 21 21 23 28 26 22
20 21 19 17 14 15 14 17 16 19 15 11 10 11 11 14 16 12 12 15 16 14 12 15 16 15 19 18 18 19 23 22 21 20 18 16 15 14 14 15 15 16 19
19 14 12 8 9 10 8 9 15 13 10 12 14 17 18 19 21 23 16 18 15 17 16 19 19 17 18 19 19 23 25 23 23 22 20 20 20 20 20 21 22 23 24
8 9 7 9 6 5 7 6 8 7 7 9 8 10 14 12 13 13 17 18 18 16 15 16 21 25 24 19 17 20 23 23 25 25 25 25 25 25 26 27 28 27 27